Ohio State University, OH

8:32 PM EDT on June 25, 2017 (GMT -0400)
Ohio State University

Weather History for KOSU - January, 2013

Change the Weather History Date:

Sunday, January 6, 2013

  Actual Average Record
Temperature  
Mean Temperature 32 °F -  
Max Temperature 37 °F 35 °F 59 °F (1998)
Min Temperature 26 °F 22 °F -9 °F (2014)
Degree Days  
Heating Degree Days 34    
Moisture  
Dew Point 29 °F    
Average Humidity 85    
Maximum Humidity 100    
Minimum Humidity 73    
Precipitation  
Precipitation 0.02 in - - ()
Sea Level Pressure  
Sea Level Pressure 30.10 in    
Wind  
Wind Speed 10 mph (WSW)    
Max Wind Speed 20 mph    
Max Gust Speed 26 mph    
Visibility 7 miles    
Events Rain , Snow    
Averages and records for this station are not official NWS values.
T = Trace of Precipitation, MM = Missing Value Source: NWS Daily Summary

Daily Weather History Graph

Daily Weather History Graph

Search for Another Location

Airport or City:

Trip Planner

Search our weather history database for the weather conditions in past years. The results will help you decide how hot, cold, wet, or windy it might be!

Date:

Astronomy

Jan. 06, 2013 Rise Set
Actual Time 7:54 AM EST 5:22 PM EST
Civil Twilight 7:24 AM EST 5:52 PM EST
Nautical Twilight 6:50 AM EST 6:26 PM EST
Astronomical Twilight 6:17 AM EST 6:59 PM EST
Moon 2:07 AM EST (1/6) 12:48 PM EST (1/6)
Length of Visible Light 10h 28m
Length of Day
9h 27m
Waning Crescent, 33% of the Moon is Illuminated
Jan 6
Waning Crescent
Jan 11
New
Jan 18
First Quarter
Jan 26
Full
Feb 3
Last Quarter

Hourly Weather History & Observations

Time (EST) Temp. Windchill Dew Point Humidity Pressure Visibility Wind Dir Wind Speed Gust Speed Precip Events Conditions
12:53 AM 34.0 °F 28.8 °F 26.1 °F 73% 30.14 in 10.0 mi SW 5.8 mph - N/A   Scattered Clouds
1:53 AM 32.0 °F 25.6 °F 27.0 °F 82% 30.13 in 10.0 mi SSW 6.9 mph - N/A   Mostly Cloudy
2:53 AM 32.0 °F 24.8 °F 27.0 °F 82% 30.12 in 10.0 mi SSW 8.1 mph - N/A   Overcast
3:53 AM 32.0 °F 24.8 °F 27.0 °F 82% 30.10 in 10.0 mi SSW 8.1 mph - N/A   Overcast
4:53 AM 33.1 °F 28.7 °F 27.0 °F 78% 30.08 in 10.0 mi SSW 4.6 mph - N/A   Overcast
5:53 AM 33.1 °F 26.9 °F 28.0 °F 82% 30.06 in 10.0 mi SSW 6.9 mph - N/A   Overcast
6:53 AM 34.0 °F 28.0 °F 28.0 °F 79% 30.06 in 10.0 mi SSW 6.9 mph - N/A   Overcast
7:53 AM 34.0 °F 26.0 °F 28.9 °F 82% 30.06 in 10.0 mi SSW 10.4 mph - N/A   Overcast
8:53 AM 35.1 °F 26.9 °F 28.9 °F 78% 30.06 in 10.0 mi SSW 11.5 mph - N/A   Overcast
9:53 AM 35.1 °F 27.4 °F 28.9 °F 78% 30.06 in 10.0 mi SSW 10.4 mph - N/A   Overcast
10:53 AM 36.0 °F 27.5 °F 30.0 °F 79% 30.07 in 10.0 mi SSW 12.7 mph 18.4 mph N/A   Overcast
11:53 AM 36.0 °F 28.0 °F 30.0 °F 79% 30.04 in 10.0 mi SW 11.5 mph - N/A   Overcast
12:53 PM 37.0 °F 29.3 °F 30.0 °F 76% 30.01 in 10.0 mi SW 11.5 mph - N/A   Overcast
1:32 PM 37.4 °F 29.3 °F 30.2 °F 75% 29.99 in 10.0 mi SW 12.7 mph - N/A   Overcast
1:53 PM 36.0 °F 29.6 °F 30.9 °F 82% 30.02 in 9.0 mi SW 8.1 mph - N/A   Overcast
2:53 PM 35.1 °F 27.9 °F 33.1 °F 92% 30.04 in 3.0 mi SW 9.2 mph - 0.00 in Rain Light Rain
3:03 PM 35.6 °F 29.2 °F 33.8 °F 93% 30.02 in 2.0 mi SW 8.1 mph - 0.00 in Rain Light Rain
3:22 PM 35.6 °F 29.9 °F 33.8 °F 93% 30.02 in 3.0 mi WSW 6.9 mph - 0.00 in Rain Light Rain
3:30 PM 35.6 °F 29.2 °F 33.8 °F 93% 30.03 in 2.0 mi West 8.1 mph - 0.00 in   Overcast
3:42 PM 35.6 °F 28.0 °F 33.8 °F 93% 30.04 in 2.0 mi WSW 10.4 mph - 0.00 in Rain Light Rain
3:53 PM 35.1 °F 28.6 °F 33.1 °F 92% 30.06 in 5.0 mi WSW 8.1 mph - 0.00 in   Overcast
4:01 PM 35.6 °F 28.6 °F 33.8 °F 93% 30.04 in 5.0 mi WSW 9.2 mph - N/A   Overcast
4:09 PM 33.8 °F 26.4 °F 33.8 °F 100% 30.05 in 2.5 mi WSW 9.2 mph - 0.01 in Rain Rain
4:25 PM 33.8 °F 25.8 °F 32.0 °F 93% 30.06 in 4.0 mi WNW 10.4 mph - 0.01 in   Overcast
4:29 PM 33.8 °F 24.8 °F 32.0 °F 93% 30.06 in 1.5 mi West 12.7 mph - 0.02 in Snow Light Snow
4:43 PM 33.8 °F 22.8 °F 30.2 °F 87% 30.07 in 3.0 mi West 18.4 mph 26.5 mph 0.02 in Snow Light Snow
4:53 PM 33.1 °F 22.6 °F 30.9 °F 92% 30.11 in 4.0 mi West 16.1 mph - 0.02 in   Overcast
5:03 PM 32.0 °F 20.5 °F 28.4 °F 87% 30.09 in 5.0 mi West 18.4 mph 26.5 mph N/A   Overcast
5:13 PM 32.0 °F 20.1 °F 28.4 °F 87% 30.09 in 8.0 mi West 19.6 mph 25.3 mph N/A   Overcast
5:17 PM 32.0 °F 20.1 °F 28.4 °F 87% 30.09 in 8.0 mi West 19.6 mph 25.3 mph N/A   Overcast
5:53 PM 30.9 °F 19.4 °F 26.1 °F 82% 30.15 in 8.0 mi WNW 17.3 mph 25.3 mph N/A   Overcast
6:53 PM 28.0 °F 17.0 °F 23.0 °F 81% 30.20 in 7.0 mi WNW 13.8 mph - N/A   Overcast
7:15 PM 26.6 °F 14.7 °F 23.0 °F 86% 30.18 in 7.0 mi WNW 15.0 mph 24.2 mph N/A   Overcast
7:53 PM 27.0 °F 16.1 °F 23.0 °F 85% 30.23 in 6.0 mi WNW 12.7 mph - N/A   Overcast
8:11 PM 26.6 °F 15.7 °F 21.2 °F 80% 30.20 in 6.0 mi WNW 12.7 mph 23.0 mph N/A   Haze
9:53 PM 26.1 °F 14.5 °F 23.0 °F 88% 30.27 in 4.0 mi West 13.8 mph - N/A   Overcast
10:53 PM 27.0 °F 16.7 °F 23.0 °F 85% 30.30 in 4.0 mi WNW 11.5 mph - N/A   Overcast
11:15 PM 26.6 °F 16.2 °F 23.0 °F 86% 30.28 in 4.0 mi West 11.5 mph - N/A   Overcast
11:53 PM 27.0 °F 16.7 °F 24.1 °F 89% 30.32 in 4.0 mi West 11.5 mph - N/A   Overcast